Location: Unspecified
(49.2170°N, 0.0000°E)
Time: 15:42:08
(UTC+00:00)

Vanguard 3 - Pass Details

Date: 29 June 2019
Orbit: 507 x 3264 km, 33.4° (Epoch: 20 July)

Event Time Altitude Azimuth Distance (km) Brightness Sun altitude
Rises 07:39:08 0° 210° (SSW) 7,222 11.7 32.8°
Reaches altitude 10° 07:45:28 10° 199° (SSW) 6,133 11.6 33.9°
Maximum altitude 07:58:55 25° 154° (SSE) 4,400 11.5 36.1°
Drops below altitude 10° 08:09:21 10° 106° (ESE) 4,713 12.3 37.7°
Sets 08:13:19 0° 94° (E) 5,312 12.2 38.4°
